Terminal Aerodrome Forecast
Issued by NWS Charleston, WV

Current Version | Previous Version | Graphics & Text | Print | Product List | Glossary On
Versions: 1 2 3 4 5 6 7 8 9 10 11 12 13 14 15 16 17 18 19 20 21 22 23 24 25 26 27
000
FTUS41 KRLX 200800 AAB
TAFPKB
TAF AMD
KPKB 200828Z 2008/2106 VRB03KT 5SM BR SCT025 BKN050
      TEMPO 2008/2011 5SM TSRA BR BKN025CB
     FM201100 00000KT P6SM VCTS OVC025CB
     FM201300 VRB03KT P6SM SHRA VCTS OVC025CB
     FM201500 VRB03KT P6SM BKN025
     FM201700 23006KT P6SM VCTS BKN035CB
     FM210000 VRB03KT P6SM SCT050
     FM210200 00000KT 6SM BR BKN200
     FM210500 00000KT 1SM BR BKN001
      AMD NOT SKED=

USA.gov is the U.S. government's official web portal to all federal, state and local government web resources and services.